Showing default

GALILEO 14 (26B), 41549

Orbit data source: Space-Track

GALILEO 14 (26B), 41549 is a payload satellite owned by GNSS Agency (ESA) that was launched on Tue, 24 May 2016 UTC via a SOYUZ-ST-B launch vehicle from the French Guiana (FRGUI). Payloads include a variety of satellites, spacecraft, and rockets equipped with specific instruments for various scientific and technological missions. These include communications satellites like Starlink; space stations such as the ISS; scientific satellites like the Hubble; Earth observation satellites from companies like Planet Labs, Umbra, and HawkEye 360; GPS; miniature CubeSats for education and research; and military/defense satellites.

Loading next visibility...
GALILEO 14 (26B) details
Identifier
41549, 2016-030A
Orbit
Active
Last TLE update1 day ago
Origin
Flag of ESAGNSS Agency (ESA)
ManufacturerOHB
MissionOperational Civil Navigation
Bus & MotorGALILEOSAT, AOCS
Mass733 kg wet, 660 kg dry
Launch date (UTC)
2016-05-24 (9 years ago)
Launch vehicle
SOYUZ-ST-B
Launch site
French Guiana (FRGUI)
Object type
Payload
Rocket body
Debris
Shape & HBRBox + 2 Pan, 14.71 m
Radar Cross Section9.223 m², Large (>1 m²)

Expand to show TLE details & history

TLE from 1 day ago
0 GALILEO 14 (26B)
1 41549U 16030A   25014.25574881  .00000053  00000-0  00000-0 0  9993
2 41549  55.2743 235.9680 0004278  23.2269 336.8730  1.70473297 53827
Epoch: 2025-01-14T06:08Z
Definitive object data (Epoch: 2025-01-14T06:08:16.697Z)
Latitude-0.00005°
Longitude29.95506°
Altitude23,210.882 km
Speed3.671 km/s
True Right ascension15h 43m 57s
True Declination0° 00' 00"
Sunlit
Object was in daylight at TLE epoch
Visualization TLE readout
Latitude37.58449°
Longitude62.14073°
Altitude23,214.106 km
Speed3.672 km/s
Apparent Right ascension18h 40m 52s
Apparent Declination31° 32' 17"
Sunlit
Object is in daylight
Visualization observer readout
Local Sidereal Time12:50:09
Azimuth66.007° ENE
Elevation21.23°
Doppler factor1
Orbital elements
Apogee altitude23,234.926 km
Perigee altitude23,209.6 km
Semi-major axis29,600.4 km
Eccentricity0.0004278
Inclination55.2743°
RAAN235.968°
Arg. of periapsis23.2269°
True anomaly336.85374°
Mean anomaly336.873°
Eccentric anomaly336.86337°
Mean motion0.42618 °/min
BSTARUnknown
Orbital period844.71 mins
Loading maneuver chart data...
Loading historical data...
Loading historical data...
Loading historical data...
Loading historical data...
Loading historical data...
Loading historical data...
Loading historical data...
Other satellites on launch #30 in the year 2016 (2016-05-24 UTC)

GALILEO 14 (26B) Visibility forecast

Observer location: undefined°, undefined

Span
Click to sort rows by Start time (UTC) header in descending order
Start Az.
Max El. time (UTC)
Max El. Az.
Max El.
End time (UTC)
End Az.
100 mins2025-01-15 12:09:50.550Z66.029° ENE2025-01-15 12:23:50.550Z60.835° ENE20.173°2025-01-15 13:49:50.550Z35.611° NE
203 mins2025-01-16 03:42:50.550Z323.791° NNW2025-01-16 05:21:50.550Z295.546° NW23.444°2025-01-16 07:05:50.550Z259.207° W
|